OK2ZAW-19 Weather Reports


time (UTC)temp
C
wind
direction
speed
KPH
gust
KPH
rain 1hr
cm
rain 24hr
cm
rain mn
cm
humidity
%
barometer
mb
20260507021426 8 315 1.6 3.2 0.00 0.00 0.00 10 1008.8
20260507020406 8 315 1.6 3.2 0.00 0.00 0.00 10 1008.6
20260507015856 8 315 0.0 1.6 0.00 0.00 0.00 10 1008.5
20260507015346 8 315 1.6 3.2 0.00 0.00 0.00 10 1008.4
20260507014835 8 315 1.6 3.2 0.00 0.00 0.00 10 1008.4
20260507014325 8 315 1.6 3.2 0.00 0.00 0.00 10 1008.4
20260507013815 8 315 1.6 3.2 0.00 0.00 0.00 10 1008.3
20260507013305 8 315 3.2 4.8 0.00 0.00 0.00 10 1008.4
20260507012754 8 315 3.2 4.8 0.00 0.00 0.00 10 1008.4
20260507012244 8 315 1.6 3.2 0.00 0.00 0.00 10 1008.3
20260507011734 8 315 3.2 4.8 0.00 0.00 0.00 10 1008.3
20260507011224 8 315 3.2 6.4 0.00 0.00 0.00 10 1008.4
20260507010203 8 315 3.2 6.4 0.00 0.00 0.00 10 1008.2
20260507005653 8 315 3.2 4.8 0.00 0.00 0.00 10 1008.2
20260507005143 8 315 3.2 4.8 0.00 0.00 0.00 10 1008.1
20260507004632 8 315 3.2 4.8 0.00 0.00 0.00 10 1008.0
20260507004122 9 315 3.2 4.8 0.00 0.00 0.00 10 1008.0
20260507003612 9 315 1.6 4.8 0.00 0.00 0.00 10 1008.0
20260507003102 9 315 1.6 3.2 0.00 0.00 0.00 10 1008.0
20260507002551 9 315 1.6 3.2 0.00 0.00 0.00 10 1007.9
20260507001531 9 315 0.0 1.6 0.00 0.00 0.00 10 1007.7
20260507001020 9 315 0.0 0.0 0.00 0.00 0.00 10 1007.5
20260507000510 9 315 0.0 1.6 0.00 0.00 0.00 10 1007.4
20260507000000 9 315 0.0 0.0 0.00 0.00 0.00 10 1007.4
20260506235450 9 315 0.0 1.6 0.00 0.00 0.00 10 1007.3
20260506234939 9 315 0.0 1.6 0.00 0.00 0.00 10 1007.3
20260506234429 9 315 0.0 1.6 0.00 0.00 0.00 10 1007.2
20260506233919 10 315 0.0 1.6 0.00 0.00 0.00 10 1007.1
20260506233408 10 315 1.6 1.6 0.00 0.00 0.00 10 1007.1
20260506232905 -17 315 0.0 1.6 0.00 0.00 0.00
20260506232858 10 315 0.0 1.6 0.00 0.00 0.00 10 1007.1
20260506232348 10 315 0.0 1.6 0.00 0.00 0.00 10 1007.1
20260506231838 10 315 1.6 3.2 0.00 0.00 0.00 10 1007.1
20260506231327 10 315 0.0 3.2 0.00 0.00 0.00 10 1007.1
20260506230306 10 315 1.6 4.8 0.00 0.00 0.00 10 1007.2
20260506225756 10 315 0.0 3.2 0.00 0.00 0.00 10 1007.0
20260506225246 10 315 1.6 4.8 0.00 0.00 0.00 10 1006.7
20260506224735 10 315 1.6 4.8 0.00 0.00 0.00 10 1006.7
20260506224225 10 315 3.2 6.4 0.00 0.00 0.00 10 1006.6
20260506223714 11 315 3.2 6.4 0.00 0.00 0.00 10 1006.7
20260506223204 11 315 1.6 4.8 0.00 0.00 0.00 10 1006.6
20260506222653 11 315 3.2 4.8 0.00 0.00 0.00 10 1006.7
20260506222143 12 315 3.2 8.0 0.00 0.00 0.00 10 1006.7
20260506221632 12 315 3.2 6.4 0.00 0.00 0.00 10 1006.6
20260506221122 12 315 6.4 8.0 0.00 0.00 0.00 10 1006.5
20260506220611 12 315 4.8 6.4 0.00 0.00 0.00 10 1006.2
20260506220101 12 315 4.8 6.4 0.00 0.00 0.00 10 1006.2
20260506215550 12 315 3.2 6.4 0.00 0.00 0.00 10 1006.1
20260506215039 12 315 1.6 4.8 0.00 0.00 0.00 10 1006.0
20260506214529 12 315 1.6 4.8 0.00 0.00 0.00 10 1006.0
20260506214018 12 315 0.0 1.6 0.00 0.00 0.00 10 1005.9
20260506213508 12 315 1.6 3.2 0.00 0.00 0.00 10 1005.8
20260506212957 12 315 1.6 3.2 0.00 0.00 0.00 10 1005.7
20260506212447 12 315 1.6 4.8 0.00 0.00 0.00 10 1005.8
20260506211425 12 315 0.0 1.6 0.00 0.00 0.00 10 1005.7
20260506210915 12 315 0.0 1.6 0.00 0.00 0.00 10 1005.7
20260506210404 11 315 0.0 1.6 0.00 0.00 0.00 10 1005.7
20260506205343 11 315 0.0 0.0 0.00 0.00 0.00 10 1005.7
20260506204833 11 315 0.0 1.6 0.00 0.00 0.00 10 1005.7
20260506204322 11 315 0.0 0.0 0.00 0.00 0.00 10 1005.7
20260506203812 11 315 0.0 1.6 0.00 0.00 0.00 10 1005.7
20260506203301 11 315 0.0 0.0 0.00 0.00 0.00 10 1005.7
20260506202751 11 315 0.0 0.0 0.00 0.00 0.00 10 1005.8
20260506202240 12 315 0.0 0.0 0.00 0.00 0.00 10 1005.8
20260506201730 12 315 0.0 0.0 0.00 0.00 0.00 10 1005.8
20260506201219 12 315 0.0 0.0 0.00 0.00 0.00 10 1005.8
20260506200709 12 315 0.0 0.0 0.00 0.00 0.00 10 1005.8
20260506200158 12 315 0.0 0.0 0.00 0.00 0.00 10 1005.9
20260506195647 12 315 0.0 1.6 0.00 0.00 0.00 10 1006.0
20260506194626 12 315 0.0 1.6 0.00 0.00 0.00 10 1005.8
20260506194116 13 315 0.0 1.6 0.00 0.00 0.00 10 1005.8
20260506193605 13 315 0.0 1.6 0.00 0.00 0.00 10 1005.8
20260506193054 13 315 0.0 1.6 0.00 0.00 0.00 10 1005.7
20260506192544 13 315 0.0 3.2 0.00 0.00 0.00 10 1005.7
20260506192033 13 315 1.6 1.6 0.00 0.00 0.00 10 1005.6
20260506191522 13 315 0.0 3.2 0.00 0.00 0.00 10 1005.6
20260506191011 13 315 0.0 1.6 0.00 0.00 0.00 10 1005.6
20260506190501 13 315 0.0 1.6 0.00 0.00 0.00 10 1005.5
20260506185950 13 315 0.0 1.6 0.00 0.00 0.00 10 1005.4
20260506184928 14 315 0.0 1.6 0.00 0.00 0.00 95 1005.5
20260506184418 14 315 0.0 3.2 0.00 0.00 0.00 93 1005.4
20260506183907 14 315 0.0 1.6 0.00 0.00 0.00 91 1005.4
20260506182845 15 315 0.0 3.2 0.00 0.00 0.00 89 1005.3
20260506182335 15 315 0.0 1.6 0.00 0.00 0.00 84 1005.2
20260506181824 15 315 1.6 1.6 0.00 0.00 0.00 83 1005.1
20260506181313 15 315 0.0 1.6 0.00 0.00 0.00 80 1005.1
20260506180802 15 315 1.6 3.2 0.00 0.00 0.00 77 1005.2
20260506180251 16 315 1.6 4.8 0.00 0.00 0.00 74 1005.1
20260506175741 16 315 1.6 3.2 0.00 0.00 0.00 70 1005.1
20260506175229 16 315 1.6 4.8 0.00 0.00 0.00 66 1005.0
20260506174718 17 315 1.6 4.8 0.00 0.00 0.00 64 1004.8
20260506174207 17 315 1.6 3.2 0.00 0.00 0.00 62 1005.0
20260506173656 17 315 1.6 3.2 0.00 0.00 0.00 59 1005.0
20260506173145 18 315 1.6 4.8 0.00 0.00 0.00 57 1005.1
20260506172633 18 315 3.2 4.8 0.00 0.00 0.00 54 1005.0
20260506172123 20 315 1.6 8.0 0.00 0.00 0.00 51 1005.0
20260506171611 21 315 1.6 3.2 0.00 0.00 0.00 49 1005.0
20260506171059 22 315 1.6 4.8 0.00 0.00 0.00 47 1005.0
20260506170547 22 315 1.6 4.8 0.00 0.00 0.00 46 1004.9
20260506170036 23 315 1.6 4.8 0.00 0.00 0.00 45 1004.9
20260506165524 23 315 1.6 3.2 0.00 0.00 0.00 44 1004.8
20260506165012 24 315 3.2 6.4 0.00 0.00 0.00 44 1005.0
20260506164500 24 315 3.2 6.4 0.00 0.00 0.00 43 1004.9
20260506163948 25 315 3.2 9.7 0.00 0.00 0.00 45 1005.1
20260506163436 24 315 1.6 6.4 0.00 0.00 0.00 46 1005.2
20260506162924 23 315 1.6 3.2 0.00 0.00 0.00 48 1005.3
20260506162412 23 315 1.6 6.4 0.00 0.00 0.00 49 1005.4
20260506161901 23 315 1.6 3.2 0.00 0.00 0.00 50 1005.4
20260506161349 21 315 3.2 8.0 0.00 0.00 0.00 50 1005.5
20260506160837 21 315 1.6 8.0 0.00 0.00 0.00 51 1005.5
20260506155814 21 315 3.2 6.4 0.00 0.00 0.00 51 1005.4
20260506155305 20 315 3.2 8.0 0.00 0.00 0.00 55 1005.6
20260506154751 20 315 4.8 9.7 0.00 0.00 0.00 54 1005.7
20260506153728 20 315 1.6 8.0 0.00 0.00 0.00 58 1005.8
20260506153217 20 315 1.6 4.8 0.00 0.00 0.00 57 1005.8
20260506152705 20 315 1.6 4.8 0.00 0.00 0.00 56 1005.9
20260506151642 22 315 1.6 3.2 0.00 0.00 0.00 53 1005.9
20260506151130 23 315 1.6 8.0 0.00 0.00 0.00 51 1006.0
20260506150107 23 315 1.6 4.8 0.00 0.00 0.00 54 1006.1
20260506145555 22 315 3.2 8.0 0.00 0.00 0.00 55 1006.3
20260506145043 22 315 1.6 4.8 0.00 0.00 0.00 57 1006.4
20260506144532 20 315 3.2 6.4 0.00 0.00 0.00 59 1006.5
20260506144020 20 315 1.6 4.8 0.00 0.00 0.00 59 1006.5
20260506143509 21 315 1.6 4.8 0.00 0.00 0.00 60 1006.5
20260506142957 20 315 1.6 3.2 0.00 0.00 0.00 60 1006.6
20260506142446 20 315 1.6 4.8 0.00 0.00 0.00 61 1006.7
20260506141934 20 315 1.6 8.0 0.00 0.00 0.00 60 1006.7
20260506141423 20 315 1.6 6.4 0.00 0.00 0.00 61 1006.8
20260506140911 20 315 3.2 8.0 0.00 0.00 0.00 61 1006.8
20260506140400 20 315 3.2 8.0 0.00 0.00 0.00 63 1006.8
20260506135848 19 315 1.6 4.8 0.00 0.00 0.00 61 1006.9
20260506135337 20 315 1.6 4.8 0.00 0.00 0.00 61 1006.9
20260506134826 19 315 1.6 4.8 0.00 0.00 0.00 62 1006.9
20260506133803 19 315 1.6 3.2 0.00 0.00 0.00 61 1007.1
20260506133252 20 315 1.6 3.2 0.00 0.00 0.00 60 1007.0
20260506132229 20 315 3.2 8.0 0.00 0.00 0.00 60 1007.2
20260506131718 19 315 1.6 4.8 0.00 0.00 0.00 61 1007.3
20260506131206 19 315 3.2 6.4 0.00 0.00 0.00 61 1007.3
20260506130655 19 315 1.6 3.2 0.00 0.00 0.00 63 1007.5
20260506130144 19 315 3.2 8.0 0.00 0.00 0.00 60 1007.6
20260506125632 19 315 6.4 9.7 0.00 0.00 0.00 61 1007.6
20260506125121 19 315 3.2 6.4 0.00 0.00 0.00 62 1007.6
20260506124610 17 315 1.6 4.8 0.00 0.00 0.00 69 1007.7
20260506124058 17 315 1.6 4.8 0.00 0.00 0.00 70 1007.8
20260506123547 17 315 1.6 3.2 0.00 0.00 0.00 69 1007.9
20260506123036 17 315 1.6 3.2 0.00 0.00 0.00 67 1008.0
20260506122525 18 315 3.2 6.4 0.00 0.00 0.00 66 1008.0
20260506122014 18 315 4.8 9.7 0.00 0.00 0.00 63 1008.0
20260506121502 18 315 3.2 4.8 0.00 0.00 0.00 64 1008.0
20260506120951 18 315 3.2 6.4 0.00 0.00 0.00 63 1008.0
20260506120440 19 315 3.2 8.0 0.00 0.00 0.00 61 1008.0
20260506115928 19 315 3.2 6.4 0.00 0.00 0.00 64 1008.0
20260506115417 19 315 3.2 6.4 0.00 0.00 0.00 64 1008.1
20260506114906 19 315 3.2 8.0 0.00 0.00 0.00 66 1008.1
20260506114354 19 315 3.2 6.4 0.00 0.00 0.00 66 1008.0
20260506113843 19 315 4.8 8.0 0.00 0.00 0.00 65 1008.1
20260506113332 19 315 3.2 6.4 0.00 0.00 0.00 64 1008.1
20260506112821 19 315 4.8 8.0 0.00 0.00 0.00 67 1008.2
20260506112309 19 315 3.2 6.4 0.00 0.00 0.00 65 1008.2
20260506111246 20 315 3.2 6.4 0.00 0.00 0.00 62 1008.2
20260506110735 20 315 4.8 8.0 0.00 0.00 0.00 61 1008.3
20260506110224 20 315 4.8 9.7 0.00 0.00 0.00 64 1008.4
20260506105712 20 315 4.8 8.0 0.00 0.00 0.00 67 1008.5
20260506105201 19 315 6.4 9.7 0.00 0.00 0.00 69 1008.5
20260506104649 19 315 3.2 6.4 0.00 0.00 0.00 71 1008.5
20260506104138 19 315 1.6 6.4 0.00 0.00 0.00 81 1008.5
20260506103627 18 315 3.2 8.0 0.00 0.00 0.00 82 1008.5
20260506103115 18 315 1.6 4.8 0.00 0.00 0.00 88 1008.6
20260506102604 17 315 3.2 6.4 0.00 0.00 0.00 86 1008.5
20260506102053 17 315 3.2 4.8 0.00 0.00 0.00 86 1008.6
20260506101542 17 315 3.2 6.4 0.00 0.00 0.00 89 1008.7
20260506101031 17 315 4.8 8.0 0.00 0.00 0.00 87 1008.8
20260506100519 17 315 4.8 6.4 0.00 0.00 0.00 94 1008.8
20260506100008 17 315 3.2 4.8 0.00 0.00 0.00 10 1008.8
20260506094946 17 315 4.8 8.0 0.00 0.00 0.00 98 1008.7
20260506094435 16 315 4.8 9.7 0.00 0.00 0.00 10 1008.8
20260506093924 16 315 4.8 6.4 0.00 0.00 0.00 10 1008.8
20260506093413 16 315 3.2 6.4 0.00 0.00 0.00 10 1008.7
20260506092902 16 315 4.8 6.4 0.00 0.00 0.00 10 1008.8
20260506092351 16 315 4.8 6.4 0.00 0.00 0.00 10 1008.7
20260506091840 16 315 4.8 8.0 0.00 0.00 0.00 10 1008.6
20260506091329 16 315 4.8 8.0 0.00 0.00 0.00 10 1008.6
20260506090818 15 315 4.8 6.4 0.00 0.00 0.00 10 1008.6
20260506085245 14 315 4.8 6.4 0.00 0.00 0.00 10 1008.7
20260506084735 14 315 4.8 8.0 0.00 0.00 0.00 10 1008.6
20260506083202 13 315 4.8 4.8 0.00 0.00 0.00 10 1008.7
20260506082651 13 315 3.2 6.4 0.00 0.00 0.00 10 1008.7
20260506082141 13 315 4.8 8.0 0.00 0.00 0.00 10 1008.6
20260506081630 13 315 4.8 8.0 0.00 0.00 0.00 10 1008.6
20260506080609 13 315 6.4 9.7 0.00 0.00 0.00 10 1008.8
20260506073504 13 315 3.2 6.4 0.00 0.00 0.00 10 1008.6
20260506072954 13 315 6.4 9.7 0.00 0.00 0.00 10 1008.6
20260506072443 13 315 4.8 8.0 0.00 0.00 0.00 10 1008.8
20260506071932 13 315 3.2 4.8 0.00 0.00 0.00 10 1008.7
20260506071422 13 315 4.8 4.8 0.00 0.00 0.00 10 1008.7
20260506070911 12 315 4.8 9.7 0.00 0.00 0.00 10 1008.6
20260506070401 12 315 6.4 8.0 0.00 0.00 0.00 10 1008.7
20260506062236 11 315 3.2 6.4 0.00 0.00 0.00 10 1008.4
20260506061215 11 315 3.2 6.4 0.00 0.00 0.00 10 1008.5
20260506051010 9 315 3.2 4.8 0.00 0.00 0.00 10 1008.0
20260506050500 9 315 3.2 6.4 0.00 0.00 0.00 10 1008.0
20260506044929 9 315 3.2 4.8 0.00 0.00 0.00 10 1007.9
20260506044419 9 315 3.2 8.0 0.00 0.00 0.00 10 1007.8
20260506043909 9 315 3.2 6.4 0.00 0.00 0.00 10 1007.8
20260506043359 9 315 4.8 8.0 0.00 0.00 0.00 10 1007.8
20260506042338 9 315 3.2 4.8 0.00 0.00 0.00 10 1007.7
20260506041828 9 315 3.2 4.8 0.00 0.00 0.00 10 1007.6
20260506041317 9 315 3.2 4.8 0.00 0.00 0.00 10 1007.5
20260506040807 9 315 3.2 3.2 0.00 0.00 0.00 10 1007.5
20260506040257 9 315 3.2 4.8 0.00 0.00 0.00 10 1007.4
20260506035747 9 315 3.2 4.8 0.00 0.00 0.00 10 1007.4
20260506035236 9 315 3.2 6.4 0.00 0.00 0.00 10 1007.3
20260506034726 9 315 3.2 3.2 0.00 0.00 0.00 10 1007.3
20260506033705 9 315 3.2 3.2 0.00 0.00 0.00 10 1007.2
20260506033155 9 315 3.2 3.2 0.00 0.00 0.00 10 1007.1
20260506032645 10 315 1.6 3.2 0.00 0.00 0.00 10 1007.2
20260506032135 10 315 1.6 3.2 0.00 0.00 0.00 10 1007.3
20260506031624 10 315 1.6 6.4 0.00 0.00 0.00 10 1007.4
20260506031114 10 315 3.2 4.8 0.00 0.00 0.00 10 1007.4
20260506030603 10 315 3.2 4.8 0.00 0.00 0.00 10 1007.5
20260506030053 10 315 3.2 4.8 0.00 0.00 0.00 10 1007.6
20260506025543 10 315 3.2 4.8 0.00 0.00 0.00 10 1007.5
20260506025032 10 315 3.2 4.8 0.00 0.00 0.00 10 1007.3
20260506024522 10 315 3.2 3.2 0.00 0.00 0.00 10 1007.3
20260506024012 10 315 3.2 3.2 0.00 0.00 0.00 10 1007.3
20260506023501 10 315 1.6 3.2 0.00 0.00 0.00 10 1007.2
20260506022951 10 315 0.0 1.6 0.00 0.00 0.00 10 1007.1
20260506022441 10 315 0.0 0.0 0.00 0.00 0.00 10 1007.1
20260506021930 10 315 0.0 0.0 0.00 0.00 0.00 10 1007.0